Weather History for KUNV - September, 2014

Change the Weather History Date:

Monday, September 8, 2014

  Actual Average Record
Temperature  
Mean Temperature 60 °F -  
Max Temperature 71 °F 75 °F 93 °F (1929)
Min Temperature 50 °F 54 °F 39 °F (1962)
Degree Days  
Heating Degree Days 4    
Growing Degree Days 10 (Base 50)    
Moisture  
Dew Point 53 °F    
Average Humidity 85    
Maximum Humidity 100    
Minimum Humidity 53    
Precipitation  
Precipitation 0.00 in - - ()
Sea Level Pressure  
Sea Level Pressure 30.25 in    
Wind  
Wind Speed 2 mph (ESE)    
Max Wind Speed 14 mph    
Max Gust Speed 18 mph    
Visibility 8 miles    
Events Fog    
Averages and records for this station are not official NWS values.
T = Trace of Precipitation, MM = Missing Value Source: NWS Daily Summary

Daily Weather History Graph

Daily Weather History Graph

Search for Another Location

Airport or City:

Trip Planner

Search our weather history database for the weather conditions in past years. The results will help you decide how hot, cold, wet, or windy it might be!

Date:

Astronomy

Sep. 08, 2014 Rise Set
Actual Time 6:45 AM EDT 7:32 PM EDT
Civil Twilight 6:17 AM EDT 7:59 PM EDT
Nautical Twilight 5:44 AM EDT 8:32 PM EDT
Astronomical Twilight 5:10 AM EDT 9:06 PM EDT
Moon 7:10 PM EDT (9/8) 6:07 AM EDT (9/8)
Length of Visible Light 13h 42m
Length of Day
12h 47m
Full, 100% of the Moon is Illuminated
Sep 8
Full
Sep 8
Full
Sep 15
Last Quarter
Sep 24
New
Oct 1
First Quarter

Hourly Weather History & Observations

Time (EDT) Temp. Dew Point Humidity Pressure Visibility Wind Dir Wind Speed Gust Speed Precip Events Conditions
12:15 AM 56.3 °F 53.6 °F 91% 30.23 in 10.0 mi Calm Calm - N/A   Clear
12:35 AM 55.9 °F 53.1 °F 90% 30.23 in 10.0 mi Calm Calm - N/A   Scattered Clouds
12:55 AM 54.5 °F 52.5 °F 93% 30.23 in 10.0 mi Calm Calm - N/A   Scattered Clouds
1:15 AM 54.3 °F 53.4 °F 97% 30.23 in 10.0 mi Calm Calm - N/A   Scattered Clouds
1:35 AM 54.7 °F 53.6 °F 96% 30.23 in 10.0 mi Calm Calm - N/A   Scattered Clouds
1:55 AM 54.9 °F 53.4 °F 95% 30.23 in 10.0 mi North 3.5 mph - N/A   Scattered Clouds
2:15 AM 54.7 °F 53.6 °F 96% 30.23 in 10.0 mi NNE 3.5 mph - N/A   Scattered Clouds
2:35 AM 54.5 °F 53.1 °F 95% 30.23 in 10.0 mi Calm Calm - N/A   Clear
2:55 AM 53.4 °F 52.7 °F 97% 30.24 in 10.0 mi Calm Calm - N/A   Clear
3:15 AM 52.3 °F 51.8 °F 98% 30.24 in 10.0 mi Calm Calm - N/A   Clear
3:35 AM 53.1 °F 52.3 °F 97% 30.25 in 10.0 mi Calm Calm - N/A   Scattered Clouds
3:55 AM 52.5 °F 52.2 °F 99% 30.25 in 7.0 mi Calm Calm - N/A   Scattered Clouds
4:15 AM 52.9 °F 52.3 °F 98% 30.25 in 10.0 mi Calm Calm - N/A   Scattered Clouds
4:35 AM 52.7 °F 51.6 °F 96% 30.25 in 10.0 mi Calm Calm - N/A   Scattered Clouds
4:55 AM 52.5 °F 51.4 °F 96% 30.25 in 10.0 mi Calm Calm - N/A   Scattered Clouds
5:15 AM 52.0 °F 51.1 °F 97% 30.25 in 10.0 mi Calm Calm - N/A   Scattered Clouds
5:35 AM 50.7 °F 50.0 °F 97% 30.25 in 10.0 mi Calm Calm - N/A   Unknown
5:53 AM 50.0 °F 50.0 °F 100% 30.25 in 0.8 mi Calm Calm - N/A   Mostly Cloudy
6:10 AM 50.0 °F 50.0 °F 100% 30.26 in 0.2 mi Calm Calm - N/A Fog Fog
6:35 AM 51.8 °F 51.8 °F 100% 30.26 in 0.1 mi Calm Calm - N/A Fog Fog
6:53 AM 51.8 °F 51.8 °F 100% 30.27 in 0.1 mi Calm Calm - N/A Fog Fog
7:53 AM 51.8 °F 51.8 °F 100% 30.28 in 0.2 mi Calm Calm - N/A Fog Fog
8:30 AM 51.8 °F 51.8 °F 100% 30.27 in 0.8 mi Calm Calm - N/A   Overcast
8:53 AM 53.6 °F 53.6 °F 100% 30.28 in 1.5 mi Calm Calm - N/A   Mostly Cloudy
9:15 AM 55.4 °F 55.4 °F 100% 30.29 in 5.0 mi Calm Calm - N/A   Scattered Clouds
9:53 AM 57.2 °F 53.6 °F 88% 30.30 in 10.0 mi Calm Calm - N/A   Scattered Clouds
10:53 AM 62.6 °F 57.2 °F 82% 30.30 in 10.0 mi Calm Calm - N/A   Scattered Clouds
11:53 AM 68.0 °F 57.2 °F 68% 30.29 in 10.0 mi SE 9.2 mph - N/A   Scattered Clouds
12:53 PM 69.8 °F 57.2 °F 64% 30.28 in 10.0 mi ESE 11.5 mph - N/A   Mostly Cloudy
1:53 PM 71.6 °F 53.6 °F 53% 30.27 in 10.0 mi SE 9.2 mph 18.4 mph N/A   Scattered Clouds
2:53 PM 71.6 °F 53.6 °F 53% 30.26 in 10.0 mi SE 9.2 mph 17.3 mph N/A   Scattered Clouds
3:53 PM 71.6 °F 53.6 °F 53% 30.24 in 10.0 mi ESE 11.5 mph - N/A   Scattered Clouds
4:53 PM 71.6 °F 55.4 °F 57% 30.23 in 10.0 mi ESE 11.5 mph - N/A   Scattered Clouds
6:53 PM 68.0 °F 57.2 °F 68% 30.23 in 10.0 mi ESE 5.8 mph - N/A   Scattered Clouds
8:53 PM 66.2 °F 55.4 °F 68% 30.25 in 10.0 mi ESE 13.8 mph - N/A   Overcast
9:55 PM 64.2 °F 53.6 °F 68% 30.25 in 10.0 mi SSE 8.1 mph 17.3 mph N/A   Clear
10:15 PM 63.9 °F 53.6 °F 69% 30.25 in 10.0 mi SSE 10.4 mph 18.4 mph N/A   Scattered Clouds
10:35 PM 63.5 °F 53.4 °F 70% 30.26 in 10.0 mi SSE 4.6 mph - N/A   Clear
10:55 PM 63.3 °F 52.9 °F 69% 30.26 in 10.0 mi SE 6.9 mph - N/A   Clear
11:15 PM 62.6 °F 52.9 °F 70% 30.26 in 10.0 mi Calm Calm - N/A   Clear
11:35 PM 62.2 °F 52.9 °F 71% 30.25 in 10.0 mi SE 4.6 mph - N/A   Clear
11:55 PM 61.9 °F 53.2 °F 73% 30.25 in 10.0 mi ESE 4.6 mph - N/A   Clear